STARLINK-2585 (48382 NORAD) Tracking and Keplerian Element Data

This shows tracking and keplerian element data for the satellite.

Feedback or suggestion? Click here.




ElementValue
Catalog48382
NameSTARLINK-2585
Epoch Orbit1459
Epoch Day215.02010922
Epoch Year2021
RAAN331.9378
Inclination53.0566
Eccentricity0.0001059
Argument of Perigee93.2363
Mean Anonmoly266.8747
Mean Motion15.06392134
Decay Rate-5.12E-06
L11 48382U 21038AF 21215.02010922 -.00000512 00000-0 -15510-4 0 9992
L22 48382 53.0566 331.9378 0001059 93.2363 266.8747 15.06392134 14590

Live tracking and technical data element details for STARLINK-2585 (NORAD 48382). STARLINK-2585 can be tracked NOW for your location showing map with azimuth and elevation plus other details from your city location.

Track the satellite on the map from your city or location and see movement details for azimuth, elevation, latitude, longitude, range, height, and movement on the map or in text.







IsCatalogInMostPopularTable: catalog: 48382, numindb: 29
Update: records affected: 1



GetName: 48382 STARLINK-2585

Hit Count: updated at: Tue, 03 Aug 2021 21:18:13 GMT